HORIZON (RS59S)

Last updated on Mon Nov 03 2025 00:03:22 GMT+0000 (Coordinated Universal Time)

1 61757U 24199Y 25306.54605821 .00049714 00000+0 94437-3 0 9992 2 61757 97.3284 176.9042 0009818 24.6884 335.4834 15.48072394102633
UTC large
Height (km)
Speed (km/s)
/
Latitude / Longitude
Inclination (degrees)
Orbital Period (minutes)
Azimuth
Elevation
Range (km)
Doppler Factor

Next 0 passes for location: London (51.5072 / 0.1276)

Sorry there are no passes over London.